Flag for Albania Weather past 2 weeks in Tirana, Albania

Now
70 °F

Partly sunny.


Feels Like: 70 °F
Forecast: 51 / 68 °F
Wind: 3 mph from Southwest

Location: Tirana Airport

Current Time: May 24, 2015 at 12:08:32 PM

Latest Report: May 24, 2015 at 11:20 AM


Visibility: N/A

Pressure: 29.89 "Hg

Humidity: 33%

Dew point: 39 °F

Location of TiranaLocation

Historic Weather in Tirana — Graph

°F

Tirana temperature yesterday

Maximum temperature yesterday: 73 °F (at 12:20 PM)
Minimum temperature yesterday: 55 °F (at 2:20 AM)
Average temperature yesterday: 65 °F

Past Weeks' High & Low Weather Summary

 TemperatureHumidityPressure
High88 °F (May 16, 11:50 AM)94% (May 10, 2:50 AM)30.21 "Hg (May 10, 2:50 AM)
Low48 °F (May 12, 4:50 AM)23% (May 11, 9:50 AM)29.77 "Hg (May 22, 10:20 AM)
Average68 °F59%29.96 "Hg
* Reported May 9 10:20 AM — May 24 10:50 AM, Tirana, Weather by CustomWeather, © 2015

Note: Actual official high and low records may vary slightly from our data, if they occured in-between our weather recording intervals... More about our weather records

Advertising

Tirana weather history for previous 24 hours

 ConditionsComfort  
Time TempWeatherWind HumidityBarometerVisibility
10:50 AM
Sun, May 24
72 °FScattered clouds.3 mph36%29.86 "HgN/A
10:20 AM70 °FScattered clouds.2 mph46%29.89 "HgN/A
9:50 AM68 °FScattered clouds.2 mph53%29.89 "HgN/A
9:20 AM66 °FPartly sunny.No wind60%29.89 "HgN/A
8:50 AM61 °FPartly sunny.No wind77%29.89 "HgN/A
8:20 AM61 °FPartly sunny.3 mph77%29.89 "HgN/A
7:50 AM59 °FPartly sunny.3 mph77%29.89 "HgN/A
7:20 AM57 °FScattered clouds.3 mph82%29.86 "HgN/A
6:50 AM54 °FScattered clouds.3 mph88%29.86 "HgN/A
6:20 AM54 °FScattered clouds.3 mph88%29.86 "HgN/A
5:50 AM52 °FPassing clouds.2 mph88%29.86 "HgN/A
5:20 AM52 °FPassing clouds.5 mph88%29.86 "HgN/A
4:50 AM54 °FPassing clouds.2 mph82%29.86 "HgN/A
4:20 AM52 °FPassing clouds.3 mph88%29.86 "HgN/A
3:50 AM54 °FClear.3 mph88%29.86 "Hg10 mi
3:20 AM54 °FClear.2 mph82%29.86 "Hg10 mi
2:50 AM52 °FClear.2 mph88%29.89 "Hg10 mi
2:20 AM55 °FClear.3 mph82%29.89 "Hg10 mi
1:50 AM54 °FClear.3 mph88%29.89 "Hg10 mi
1:20 AM54 °FPassing clouds.3 mph88%29.92 "HgN/A
12:50 AM55 °FClear.7 mph82%29.92 "Hg10 mi
12:20 AM55 °FClear.5 mph82%29.92 "Hg10 mi
11:50 PM
Sat, May 23
57 °FClear.2 mph82%29.92 "Hg10 mi
11:20 PM57 °FClear.2 mph82%29.92 "Hg10 mi
10:50 PM57 °FClear.No wind88%29.92 "Hg10 mi
10:20 PM59 °FClear.No wind77%29.92 "Hg10 mi
9:50 PM61 °FClear.No wind72%29.92 "Hg10 mi
9:20 PM61 °FClear.No wind72%29.92 "Hg10 mi
8:50 PM63 °FSunny.5 mph68%29.92 "Hg10 mi
8:20 PM64 °FSunny.3 mph64%29.89 "Hg10 mi
7:50 PM66 °FSunny.3 mph60%29.89 "Hg10 mi
7:20 PM68 °FPassing clouds.5 mph56%29.89 "HgN/A
6:50 PM68 °FSunny.6 mph49%29.89 "Hg10 mi
6:20 PM72 °FPassing clouds.5 mph44%29.89 "HgN/A
5:50 PM72 °FPassing clouds.3 mph44%29.89 "HgN/A
5:20 PM72 °FScattered clouds.7 mph47%29.89 "HgN/A
4:50 PM72 °FPartly sunny.7 mph50%29.92 "HgN/A
4:20 PM70 °FPartly sunny.9 mph53%29.92 "HgN/A
3:50 PM72 °FScattered clouds.8 mph50%29.89 "HgN/A
3:20 PM73 °FScattered clouds.9 mph53%29.89 "HgN/A
2:50 PM73 °FScattered clouds.9 mph53%29.89 "HgN/A
2:20 PM73 °FScattered clouds.9 mph53%29.89 "HgN/A
1:50 PM73 °FPassing clouds.8 mph53%29.89 "HgN/A
1:20 PM73 °FScattered clouds.5 mph44%29.89 "HgN/A
12:50 PM72 °FScattered clouds.5 mph44%29.89 "HgN/A
12:20 PM73 °FScattered clouds.3 mph44%29.89 "HgN/A
Weather by CustomWeather, © 2015

See weather overviewHow to use our weather pages